Location: Milton Keynes
(52.0316°N, 0.7531°W)
Time: 04:40:15
(UTC+00:00)

ISS - Pass Details

Date: 26 January 2019
Orbit: 403 x 411 km, 51.6° (Epoch: 23 February)

Event Time Altitude Azimuth Distance (km) Brightness Sun altitude
Rises 18:08:36 0° 225° (SW) 2,327 1.1 -13.6°
Reaches altitude 10° 18:10:48 10° 214° (SW) 1,471 -0.3 -13.9°
Maximum altitude 18:13:45 30° 151° (SSE) 765 -2.6 -14.3°
Enters shadow 18:14:49 24° 116° (ESE) 893 -2.6 -14.5°
